Los Angeles Downtown, CA

5:23 PM PST on November 23, 2017 (GMT -0800)
Los Angeles Downtown

Weather History for KCQT - March, 2013

Change the Weather History Date:

Wednesday, March 27, 2013

  Actual Average Record
Temperature  
Mean Temperature 63 °F 61 °F  
Max Temperature 71 °F 71 °F 91 °F (1986)
Min Temperature 54 °F 52 °F 37 °F (1884)
Degree Days  
Heating Degree Days 2 5  
Month to date heating degree days 87 139  
Since 1 July heating degree days 862 914  
Cooling Degree Days 0 1  
Month to date cooling degree days 13 24  
Year to date cooling degree days 21 47  
Growing Degree Days 12 (Base 50)    
Moisture  
Dew Point 50 °F    
Average Humidity 64    
Maximum Humidity 83    
Minimum Humidity 45    
Precipitation  
Precipitation 0.00 in 0.05 in 1.98 in (1979)
Month to date precipitation 0.52 2.22  
Year to date precipitation 1.90 9.14  
Since 1 July precipitation 5.12  
Sea Level Pressure  
Sea Level Pressure 29.98 in    
Wind  
Wind Speed 1 mph (SE)    
Max Wind Speed 9 mph    
Max Gust Speed 14 mph    
Visibility 10 miles    
Events      
T = Trace of Precipitation, MM = Missing Value Source: NWS Daily Summary

Daily Weather History Graph

Daily Weather History Graph

Search for Another Location

Airport or City:

Trip Planner

Search our weather history database for the weather conditions in past years. The results will help you decide how hot, cold, wet, or windy it might be!

Date:

Astronomy

Mar. 27, 2013 Rise Set
Actual Time 6:46 AM PDT 7:10 PM PDT
Civil Twilight 6:21 AM PDT 7:35 PM PDT
Nautical Twilight 5:52 AM PDT 8:04 PM PDT
Astronomical Twilight 5:22 AM PDT 8:34 PM PDT
Moon 7:55 PM PDT (3/27) 6:42 AM PDT (3/27)
Length of Visible Light 13h 13m
Length of Day
12h 23m
Full, 100% of the Moon is Illuminated
Mar 27
Full
Apr 2
Last Quarter
Apr 10
New
Apr 18
First Quarter
Apr 25
Full

Hourly Weather History & Observations

Time (PDT) Temp. Dew Point Humidity Pressure Visibility Wind Dir Wind Speed Gust Speed Precip Events Conditions
12:47 AM 55.0 °F 48.9 °F 80% 29.96 in 10.0 mi Calm Calm - N/A   Clear
1:47 AM 55.0 °F 48.9 °F 80% 29.95 in 10.0 mi Calm Calm - N/A   Clear
2:15 AM 53.6 °F 50.0 °F 88% 29.94 in 10.0 mi Calm Calm - N/A   Mostly Cloudy
2:30 AM 55.4 °F 50.0 °F 82% 29.94 in 10.0 mi Calm Calm - N/A   Overcast
2:47 AM 55.0 °F 50.0 °F 83% 29.93 in 8.0 mi Calm Calm - N/A   Overcast
3:47 AM 55.9 °F 50.0 °F 80% 29.93 in 10.0 mi Calm Calm - N/A   Overcast
4:47 AM 55.9 °F 50.0 °F 80% 29.94 in 10.0 mi Calm Calm - N/A   Overcast
5:40 AM 55.4 °F 50.0 °F 82% 29.95 in 10.0 mi Calm Calm - N/A   Overcast
5:47 AM 57.0 °F 50.0 °F 77% 29.95 in 10.0 mi Calm Calm - N/A   Overcast
6:47 AM 57.0 °F 48.9 °F 74% 29.96 in 8.0 mi Calm Calm - N/A   Overcast
7:47 AM 57.9 °F 48.9 °F 72% 29.98 in 7.0 mi Calm Calm - N/A   Overcast
8:47 AM 57.9 °F 48.9 °F 72% 29.99 in 7.0 mi Calm Calm - N/A   Overcast
9:47 AM 60.1 °F 48.9 °F 67% 30.00 in 10.0 mi East 3.5 mph - N/A   Overcast
10:47 AM 63.0 °F 48.0 °F 58% 30.00 in 10.0 mi Calm Calm - N/A   Mostly Cloudy
11:12 AM 64.4 °F 48.2 °F 56% 30.00 in 10.0 mi East 5.8 mph - N/A   Scattered Clouds
11:47 AM 66.0 °F 48.0 °F 52% 29.99 in 10.0 mi Calm Calm - N/A   Clear
12:47 PM 68.0 °F 46.9 °F 47% 29.99 in 10.0 mi Calm Calm - N/A   Clear
1:47 PM 70.0 °F 48.9 °F 47% 29.97 in 10.0 mi SSW 3.5 mph - N/A   Clear
2:47 PM 66.9 °F 51.1 °F 57% 29.97 in 10.0 mi Variable 4.6 mph - N/A   Clear
3:47 PM 66.0 °F 51.1 °F 59% 29.97 in 10.0 mi Variable 4.6 mph - N/A   Clear
4:47 PM 64.0 °F 51.1 °F 63% 29.97 in 10.0 mi Variable 4.6 mph - N/A   Clear
5:47 PM 64.0 °F 50.0 °F 60% 29.97 in 10.0 mi Calm Calm - N/A   Clear
6:47 PM 62.1 °F 50.0 °F 65% 29.98 in 10.0 mi Variable 4.6 mph - N/A   Clear
7:47 PM 59.0 °F 51.1 °F 75% 30.00 in 10.0 mi Calm Calm - N/A   Clear
8:47 PM 57.9 °F 51.1 °F 78% 30.02 in 10.0 mi Calm Calm - N/A   Clear
9:47 PM 57.0 °F 51.1 °F 81% 30.03 in 10.0 mi Calm Calm - N/A   Clear
10:47 PM 57.0 °F 51.1 °F 81% 30.04 in 10.0 mi Calm Calm - N/A   Clear
11:47 PM 57.0 °F 52.0 °F 83% 30.04 in 9.0 mi Calm Calm - N/A   Clear